{"data":{"norad_id":38736,"intl_designator":"2012-041D","name":"GONETS-M 4","alt_names":[],"object_type":"PAYLOAD","status":"ACTIVE","operator":null,"country":"CIS","launch_date":"2012-07-28","launch_site_code":"PLMSC","launch_vehicle":null,"mission":null,"orbit_class":"UNKNOWN","rcs_meters":1.704,"size_class":null,"mass_kg":null,"dimensions":null,"purposes":[],"wikipedia_slug":null,"has_3d_model":false,"image_url":null,"decayed_at":null,"tle_current":{"epoch":"2026-05-25T04:25:50.916576Z","epoch_age_seconds":55131,"freshness":"FRESH","line1":"1 38736U 12041D   26145.18461709 -.00000001  00000+0 -79714-4 0  9993","line2":"2 38736  82.4779  85.1825 0026306 101.7776 258.6258 12.43903187620092","mean_motion":12.43903187,"eccentricity":0.0026306,"inclination_deg":82.4779,"raan_deg":85.1825,"arg_perigee_deg":101.7776,"mean_anomaly_deg":258.6258,"bstar":-7.9714e-5,"rev_number":62009,"period_min":115.76463627149,"perigee_km":1469.4022030092,"apogee_km":1510.7985735564,"semimajor_km":7868.2373882828,"source":"CELESTRAK","updated_at":"2026-05-25T13:37:55.304641Z"}}}